Regional Weather Roundup
Issued by NWS State College, PA

Home | Current Version | Previous Version | Text Only | Print | Product List | Glossary Off
Versions: 1 2 3 4 5 6 7 8 9 10 11 12 13 14 15 16 17 18 19 20 21 22 23 24 25 26 27 28 29 30 31 32 33 34 35 36 37 38 39 40 41 42 43 44 45 46 47 48 49 50

000
ASUS41 KCTP 221910
RWRCTP

REGIONAL WEATHER ROUNDUP
NATIONAL WEATHER SERVICE STATE COLLEGE PA
200 PM EST SUN JAN 22 2017

Note: "fair" indicates few or no clouds below 12,000 feet with no
significant weather and/or obstructions to visibility.

* = STATION THAT DOES NOT REPORT PRECIPITATION /E.G. RAIN...SNOW...ETC/
    THUNDER OR FOG.

PAZ002>004-007>009-013>016-020>023-029>032-222000-
WESTERN PENNSYLVANIA

CITY           SKY/WX    TMP DP  RH WIND       PRES   REMARKS
ERIE           CLOUDY    52  44  74 NE7       29.61S
MEADVILLE      CLOUDY    58  47  66 VRB3      29.60F
FRANKLIN*        N/A     54  48  82 N5        29.61F
NEW CASTLE     MOCLDY    58  51  78 N5        29.59F
BEAVER COUNTY  NOT AVBL
BUTLER*        CLOUDY    57  48  72 N5        29.60F
PITTSBURGH INT CLOUDY    60  49  66 E5        29.56F
PITTSBURGH     CLOUDY    60  46  59 VRB3      29.56S
INDIANA*       SUNNY     59  50  72 VRB3      29.60S
LATROBE        MOSUNNY   63  48  59 NE9       29.57F
WASHINGTON CO* CLOUDY    59  45  58 NE7       29.55F
$$

PAZ004>006-010>012-017>019-024>028-033>037-041-042-045-046-049>053-222000-
CENTRAL PENNSYLVANIA

CITY           SKY/WX    TMP DP  RH WIND       PRES   REMARKS
BRADFORD       CLOUDY    57  47  69 SE6       29.62F
DUBOIS         MOSUNNY   59  46  62 E7        29.58F
CLEARFIELD     MOSUNNY   54  47  77 N6        29.61F
JOHNSTOWN      MOSUNNY   57  47  69 NE6       29.58F
ALTOONA        FOG       45  44  97 E6        29.61F VSB 1/4
STATE COLLEGE  FOG       41  41 100 CALM      29.63F VSB 1/8
WILLIAMSPORT   CLOUDY    45  41  86 CALM      29.65F
SELINSGROVE    CLOUDY    44  43  96 CALM      29.68F FOG
FT INDIANTOWN  CLOUDY    46  46 100 NE3       29.65S
CAPITAL CITY   CLOUDY    47  43  86 CALM      29.66R FOG
HARRISBURG     CLOUDY    45  44  97 NE3       29.66R FOG
YORK           CLOUDY    45  45 100 NE7       29.62F FOG
$$

PAZ038>040-043-044-047-048-054-055-060>062-067>071-222000-
EASTERN PENNSYLVANIA

CITY           SKY/WX    TMP DP  RH WIND       PRES   REMARKS
SCRANTON       MOSUNNY   51  47  86 VRB3      29.62F
MOUNT POCONO   FOG       45  45 100 E7        29.64F VSB<1/4
ALLENTOWN      CLOUDY    49  45  86 E6        29.66F FOG
QUAKERTOWN*    CLOUDY    46  46 100 E3        29.67S
READING        FOG       45  45 100 N3        29.66F VSB 3/4
LANCASTER      CLOUDY    47  46  97 NE3       29.66S FOG
COATESVILLE    CLOUDY    48  48 100 CALM      29.67R FOG
POTTSTOWN      CLOUDY    47  46  97 NE5       29.67F FOG
BLUE BELL      CLOUDY    46  46 100 CALM      29.65S
DOYLESTOWN     CLOUDY    49  48  97 NE6       29.66F
WILLOW GROVE   NOT AVBL
NORTH PHILA    CLOUDY    50  48  93 NE9       29.68F FOG
PHILADELPHIA   CLOUDY    50  47  89 E8        29.66S
$$



USA.gov is the U.S. government's official web portal to all federal, state and local government web resources and services.